Simultaneous Nadir Overpasses (SNOs) Predictions

Prediction of SNOs between AQUA and NOAA-19 Satellite Orbit:

Table of predicted SNOs for the next 14.0 days since TLE Epoch: 1/29/2016
Index Date (AQUA) Time (AQUA) Lat,Lon (AQUA) SZA (AQUA ) Date (NOAA-19) Time (NOAA-19) Lat,Lon (NOAA-19) SZA (NOAA-19 ) Distance(km) Time Diff (sec)
1 01/31/2016 21:19:39 -80.70, 2.71 79.83 01/31/2016 21:19:40 -80.69, 2.69 79.83 0.45 1
2 02/03/2016 02:03:56 -80.72, -68.67 80.40 02/03/2016 02:02:49 -80.71, -68.51 80.39 2.90 67
3 02/03/2016 02:53:21 80.67, 99.55 99.50 02/03/2016 02:53:50 80.67, 99.69 99.47 2.44 29
4 02/05/2016 07:37:39 80.70, 28.11 98.92 02/05/2016 07:37:01 80.70, 28.27 98.92 2.83 38
5 02/05/2016 08:27:04 -80.67,-163.80 81.17 02/05/2016 08:27:57 -80.67,-163.76 81.19 0.94 53
6 02/07/2016 13:11:22 -80.70, 124.71 81.76 02/07/2016 13:11:08 -80.71, 124.63 81.75 1.56 14
7 02/09/2016 18:45:05 80.70,-138.64 97.53 02/09/2016 18:45:21 80.70,-138.71 97.53 1.30 16
8 02/11/2016 23:29:22 80.71, 150.09 96.85 02/11/2016 23:28:31 80.72, 150.10 96.88 0.68 51




NCC Satellite Simultaneous Nadir Overpasses (SNOs) Prediction Service
